Regional Weather Roundup
Issued by NWS Sioux Falls, SD

Home | Current Version | Previous Version | Text Only | Print | Product List | Glossary Off
Versions: 1 2 3 4 5 6 7 8 9 10 11 12 13 14 15 16 17 18 19 20 21 22 23 24 25 26 27 28 29 30 31 32 33 34 35 36 37 38 39 40 41 42 43 44 45 46 47 48 49 50

000
ASUS43 KFSD 070010
RWRFSD

WEATHER ROUNDUP FOR SE SOUTH DAKOTA/SW MINNESOTA/NW IOWA
NATIONAL WEATHER SERVICE SIOUX FALLS SD
600 PM CST TUE DEC 06 2016

NOTE: "FAIR" INDICATES FEW OR NO CLOUDS BELOW 12,000 FEET WITH NO
SIGNIFICANT WEATHER AND OR OBSTRUCTIONS TO VISIBILITY.


SDZ038>040-050-052>070-070100-
SOUTHEAST SOUTH DAKOTA

CITY           SKY/WX    TMP DP  RH WIND       PRES   REMARKS
BROOKINGS      FLURRIES  12   7  80 W25G36    29.87R WCI  -8
CHAMBERLAIN    CLEAR     15   6  67 NW23G32   30.05R WCI  -3
6HR MIN TEMP:  15; 6HR MAX TEMP:  20;

HURON          CLEAR     12   4  70 NW26G38   29.99R WCI  -8
6HR MIN TEMP:  12; 6HR MAX TEMP:  19; 6HR PCP: TRACE;

MADISON        LGT RAIN  12   9  85 W25G32    29.91R WCI  -8
MITCHELL       CLEAR     16   7  67 W23G36    30.02R WCI  -2
6HR MIN TEMP:  16; 6HR MAX TEMP:  23;

SIOUX FALLS    PTCLDY    17   9  70 W21G33    29.94R WCI   0
6HR MIN TEMP:  17; 6HR MAX TEMP:  23; 6HR PCP: TRACE;

WINNER         FAIR      15   5  64 NW15      30.04R WCI   0
YANKTON        CLEAR     19   7  58 W17       30.02R WCI   4
$$

MNZ071-072-080-081-089-090-097-098-070100-
SOUTHWEST MINNESOTA

CITY           SKY/WX    TMP DP  RH WIND       PRES   REMARKS
FAIRMONT       CLEAR     20  12  71 W30G36    29.85S WCI   1
JACKSON        MOCLDY    18  10  73 W21G31    29.86R WCI   1
LUVERNE        CLEAR     18   9  68 W24G30    29.92R WCI   0
MARSHALL       CLEAR     15   9  76 W31       29.85R WCI  -6
6HR MIN TEMP:  15; 6HR MAX TEMP:  21; 6HR PCP: TRACE;

MONTEVIDEO     CLOUDY    18   9  68 NW22G35   29.82R WCI   0
PIPESTONE      FLURRIES  16  10  79 W21G30    29.88R WCI  -2
REDWOOD FALLS  MOCLDY    17   7  64 W23G37    29.83R WCI  -1
TRACY          CLEAR     17  10  74 W17G30    29.85R WCI   1
WINDOM         PTCLDY    18  10  73 W25G33    29.84R WCI  -1
WORTHINGTON    PTCLDY    16  10  77 W28       29.87R WCI  -4
$$

IAZ001>003-012>014-020>022-031-032-NEZ013-014-SDZ071-070100-
NORTHWEST IOWA

CITY           SKY/WX    TMP DP  RH WIND       PRES   REMARKS
CHEROKEE       CLEAR     21  11  66 W13       29.98R WCI   9
DENISON        CLEAR     25  14  63 W10       29.98R WCI  15
ESTHERVILLE    CLEAR     20  12  71 W26G36    29.88R WCI   2
LE MARS        CLEAR     21  10  63 W12       30.01R WCI   9
ORANGE CITY    CLEAR     18  10  73 W18       29.95R WCI   2
SHELDON        PTCLDY    18  12  79 W24G30    29.92R WCI   0
SIOUX CITY     CLEAR     25  11  55 NW13      30.02R WCI  14
6HR MIN TEMP:  25; 6HR MAX TEMP:  33;

SPENCER        CLEAR     20  11  68 W25G39    29.92R WCI   2
6HR MIN TEMP:  20; 6HR MAX TEMP:  26;

STORM LAKE     CLEAR     21  10  63 W23G30    29.94R WCI   5
$$

ABBREVIATIONS USED IN REMARKS
   TC - TEMPERATURE IN CELSIUS
  WCI - WIND CHILL INDEX
   HX - HEAT INDEX
  VSB - VISIBILITY





USA.gov is the U.S. government's official web portal to all federal, state and local government web resources and services.